Regional Weather Roundup
Issued by NWS

Home | Current Version | Previous Version | Graphics & Text | Print | Product List | Glossary On
Versions: 1 2 3 4 5 6 7 8 9 10 11 12 13 14 15 16 17 18 19 20 21 22 23 24 25 26 27 28 29 30 31 32 33 34 35 36 37 38 39 40 41 42 43 44 45 46 47 48 49 50
000
ASUS45 KBOI 211910
RWRID

IDAHO REGIONAL WEATHER ROUNDUP
NATIONAL WEATHER SERVICE BOISE ID
1200 PM MST TUE FEB 21 2017

NOTE: "FAIR" INDICATES FEW OR NO CLOUDS BELOW 12000 FEET
WITH NO SIGNIFICANT WEATHER AND/OR OBSTRUCTIONS TO VISIBILITY

IDZ012-014-212000-
SOUTHWEST IDAHO


CITY           SKY/WX    TMP DP  RH WIND       PRES   REMARKS
BOISE          MOSUNNY   54  30  40 SW15G25   29.91R
CALDWELL       MOSUNNY   58  31  35 SW30G37   29.87F
MOUNTAIN HOME  PTSUNNY   52  30  42 SW22      29.94R
$$

IDZ016-017-212000-
SOUTHCENTRAL IDAHO


CITY           SKY/WX    TMP DP  RH WIND       PRES   REMARKS
BURLEY         PTSUNNY   52  34  50 W21G29    29.93F
JEROME           N/A    N/A N/A N/A MISG      29.96S
TWIN FALLS     LGT RAIN  45  35  68 SW18G28   29.97R
$$

IDZ019>023-212000-
SOUTHEAST IDAHO


CITY           SKY/WX    TMP DP  RH WIND       PRES   REMARKS
IDAHO FALLS    LGT RAIN  41  36  82 SW9G22    29.95S
POCATELLO      LGT RAIN  45  37  73 CALM      29.96S
REXBURG        CLOUDY    43  36  76 SW17G25   29.93S
$$

IDZ006-010-011-018-031-032-212000-
CENTRAL IDAHO MOUNTAINS


CITY           SKY/WX    TMP DP  RH WIND       PRES   REMARKS
MCCALL         CLOUDY    38  27  64 S18G29    29.82R WCI  28
HAILEY         PTSUNNY   41  30  65 SW14      29.96F
STANLEY          N/A     34  23  64 S10G23    29.87R WCI  26
SALMON         PTSUNNY   43  34  70 SW17G23   29.79R
CHALLIS        CLOUDY    37  32  82 S8        29.84S WCI  31
$$

IDZ002-004-006-007-026-212000-
NORTHERN IDAHO


CITY           SKY/WX    TMP DP  RH WIND       PRES   REMARKS
LEWISTON       LGT RAIN  43  41  93 NW5       29.71R FOG
LOWELL           N/A     38  35  89 VRB3      29.75R
COEUR D`ALENE  LGT SNOW  35  34  96 CALM      29.70R FOG
MULLAN PASS    SNOW      30  29  96 SW12G23   29.59R VSB 1/2 WCI  20
$$



USA.gov is the U.S. government's official web portal to all federal, state and local government web resources and services.